Iowa City, IA

12:43 AM CDT on October 21, 2019 (GMT -0500)
Iowa City Municipal

Weather History for KIOW - July, 2019

Change the Weather History Date:

Friday, July 19, 2019

  Actual Average Record
Temperature  
Mean Temperature 89 °F 75 °F  
Max Temperature 98 °F 85 °F 98 °F (1974)
Min Temperature 80 °F 65 °F 53 °F (2003)
Degree Days  
Heating Degree Days 0 0  
Month to date heating degree days 0 0  
Since 1 June heating degree days 6 17  
Since 1 July heating degree days 0 0  
Cooling Degree Days 24 10  
Month to date cooling degree days 303 190  
Year to date cooling degree days 547 462  
Since 1 June cooling degree days 501 401  
Growing Degree Days 39 (Base 50)    
Moisture  
Dew Point 76 °F    
Average Humidity 69    
Maximum Humidity 82    
Minimum Humidity 56    
Precipitation  
Precipitation 0.00 in 0.15 in 2.42 in (1978)
Month to date precipitation 0.80 3.37  
Year to date precipitation 24.53 20.07  
Sea Level Pressure  
Sea Level Pressure 29.76 in    
Wind  
Wind Speed 9 mph (SSW)    
Max Wind Speed 18 mph    
Max Gust Speed 25 mph    
Visibility 10 miles    
Events      
T = Trace of Precipitation, MM = Missing Value Source: NWS Daily Summary

Daily Weather History Graph

Daily Weather History Graph

Search for Another Location

Airport or City:

Astronomy

Jul. 19, 2019 Rise Set
Actual Time 5:48 AM CDT 8:36 PM CDT
Civil Twilight 5:15 AM CDT 9:08 PM CDT
Nautical Twilight 4:34 AM CDT 9:49 PM CDT
Astronomical Twilight 3:46 AM CDT 10:37 PM CDT
Moon 10:32 PM CDT (7/19) 8:16 AM CDT (7/19)
Length of Visible Light 15h 53m
Length of Day
14h 48m
Waning Gibbous, 93% of the Moon is Illuminated
Jul 19
Waning Gibbous
Jul 24
Last Quarter
Jul 31
New
Aug 7
First Quarter
Aug 15
Full

Hourly Weather History & Observations

Time (CDT) Temp. Heat Index Dew Point Humidity Pressure Visibility Wind Dir Wind Speed Gust Speed Precip Events Conditions
12:52 AM 86.0 °F 96.0 °F 75.9 °F 72% 29.74 in 10.0 mi SSW 10.4 mph - N/A   Clear
1:52 AM 86.0 °F 95.1 °F 75.0 °F 70% 29.74 in 10.0 mi South 10.4 mph - N/A   Clear
2:52 AM 84.9 °F 93.3 °F 75.0 °F 72% 29.73 in 10.0 mi SSW 9.2 mph - N/A   Clear
3:52 AM 84.9 °F 92.1 °F 73.9 °F 69% 29.73 in 10.0 mi SSW 10.4 mph - N/A   Clear
4:52 AM 84.0 °F 91.2 °F 73.9 °F 72% 29.75 in 10.0 mi SSW 5.8 mph - N/A   Clear
5:52 AM 82.9 °F 89.4 °F 73.9 °F 74% 29.77 in 10.0 mi SSW 3.5 mph - N/A   Clear
6:52 AM 81.0 °F 86.2 °F 73.9 °F 79% 29.80 in 10.0 mi South 3.5 mph - N/A   Clear
7:52 AM 84.0 °F 91.2 °F 73.9 °F 72% 29.81 in 10.0 mi South 8.1 mph - N/A   Clear
8:52 AM 87.1 °F 95.4 °F 73.9 °F 65% 29.80 in 10.0 mi SW 6.9 mph 18.4 mph N/A   Clear
9:52 AM 90.0 °F 99.0 °F 73.9 °F 59% 29.79 in 10.0 mi WSW 10.4 mph 21.9 mph N/A   Clear
10:52 AM 91.9 °F 103.9 °F 75.9 °F 59% 29.80 in 10.0 mi WSW 13.8 mph 19.6 mph N/A   Clear
11:52 AM 93.0 °F 105.3 °F 75.9 °F 57% 29.80 in 10.0 mi SW 9.2 mph - N/A   Clear
12:52 PM 95.0 °F 109.7 °F 77.0 °F 56% 29.80 in 10.0 mi SSW 9.2 mph 18.4 mph N/A   Clear
1:52 PM 95.0 °F 109.7 °F 77.0 °F 56% 29.78 in 10.0 mi SSW 9.2 mph - N/A   Clear
2:52 PM 97.0 °F 113.5 °F 78.1 °F 54% 29.78 in 10.0 mi South 10.4 mph - N/A   Clear
3:52 PM 97.0 °F 113.5 °F 78.1 °F 54% 29.76 in 10.0 mi SSW 13.8 mph - N/A   Clear
4:52 PM 97.0 °F 115.4 °F 79.0 °F 56% 29.75 in 10.0 mi South 12.7 mph - N/A   Clear
5:52 PM 97.0 °F 113.5 °F 78.1 °F 54% 29.73 in 10.0 mi South 15.0 mph 24.2 mph N/A   Clear
6:52 PM 95.0 °F 111.4 °F 78.1 °F 58% 29.72 in 10.0 mi South 16.1 mph 24.2 mph N/A   Clear
7:52 PM 93.0 °F 108.9 °F 78.1 °F 62% 29.72 in 10.0 mi South 12.7 mph - N/A   Clear
8:52 PM 91.0 °F 106.2 °F 78.1 °F 66% 29.74 in 10.0 mi South 9.2 mph - N/A   Clear
9:52 PM 89.1 °F 103.2 °F 78.1 °F 70% 29.75 in 10.0 mi South 6.9 mph - N/A   Clear
10:52 PM 86.0 °F 98.3 °F 78.1 °F 77% 29.78 in 10.0 mi South 6.9 mph - N/A   Clear
11:52 PM 84.9 °F 96.6 °F 78.1 °F 80% 29.79 in 10.0 mi SSE 5.8 mph - N/A   Clear